^^

..:: Storico WU ::..




Lo storico viene creato da WUnderground con i dati che la stazione Meteomincio invia al loro server. L' aggiornamento viene fatto ogni 5 minuti circa, tuttavia possono esserci intervalli pił ampi a causa di errori, interruzioni di servizio o problemi nell' invio tramite FTP.


Storico stazione MeteoMincio
Giorno Sommario per Ottobre 05, 2022 Unità:  Inglese    Metrico   Entrambi
Giorno Settimana Mese Anno
  Max: Min: Media:
Temperatura: 75.2 °F 55.4 °F 64.4 °F
Dew Point: 64.4 °F 53.6 °F 59.7 °F
Umidità: 94% 66% 85%
Velocità vento: 6.8mph 0mph 2.1mph
Raffica: 9.3mph - -
Direzione- - ENE
Pressione: 30.3 in 30.3 in -
Precipitazioni: 0 in    
 
 
Tabulato Dati per Ottobre 05, 2022
Ora Temperatura Dew Point Pressione Direzione Velocità vento Raffica Umidità Intensità pioggia (oraria) Info solare Situazione
00:04 60.8 °F 57.2 °F 30.3 in NE 2.5 mph 3.7 mph 89% 0 in 0.00 W/m2 unknown
00:09 60.8 °F 57.2 °F 30.3 in NE 3.1 mph 3.7 mph 89% 0 in 0.00 W/m2 unknown
00:14 60.8 °F 57.2 °F 30.3 in ENE 3.1 mph 3.7 mph 89% 0 in 0.00 W/m2 unknown
00:19 60.8 °F 57.2 °F 30.3 in ENE 3.1 mph 3.7 mph 89% 0 in 0.00 W/m2 unknown
00:24 60.8 °F 57.2 °F 30.3 in ENE 3.1 mph 3.7 mph 90% 0 in 0.00 W/m2 unknown
00:29 59 °F 57.2 °F 30.3 in ENE 3.1 mph 3.7 mph 90% 0 in 0.00 W/m2 unknown
00:34 59 °F 57.2 °F 30.3 in ENE 3.7 mph 5 mph 90% 0 in 0.00 W/m2 unknown
00:39 60.8 °F 57.2 °F 30.3 in ENE 3.7 mph 6.8 mph 90% 0 in 0.00 W/m2 unknown
00:44 60.8 °F 57.2 °F 30.3 in ENE 3.7 mph 6.8 mph 89% 0 in 0.00 W/m2 unknown
00:49 60.8 °F 57.2 °F 30.3 in ENE 3.7 mph 6.8 mph 89% 0 in 0.00 W/m2 unknown
00:54 60.8 °F 57.2 °F 30.3 in ENE 3.7 mph 5 mph 89% 0 in 0.00 W/m2 unknown
00:59 60.8 °F 57.2 °F 30.3 in ENE 3.1 mph 5 mph 89% 0 in 0.00 W/m2 unknown
01:04 59 °F 57.2 °F 30.3 in ENE 3.7 mph 5 mph 89% 0 in 0.00 W/m2 unknown
01:09 59 °F 57.2 °F 30.3 in ENE 3.7 mph 5 mph 89% 0 in 0.00 W/m2 unknown
01:14 60.8 °F 57.2 °F 30.3 in ENE 1.9 mph 5 mph 89% 0 in 0.00 W/m2 unknown
01:19 60.8 °F 57.2 °F 30.3 in ENE 1.9 mph 3.7 mph 89% 0 in 0.00 W/m2 unknown
01:24 59 °F 57.2 °F 30.3 in East 2.5 mph 3.7 mph 89% 0 in 0.00 W/m2 unknown
01:29 59 °F 57.2 °F 30.3 in East 2.5 mph 3.7 mph 89% 0 in 0.00 W/m2 unknown
01:34 59 °F 55.4 °F 30.3 in ENE 2.5 mph 3.7 mph 89% 0 in 0.00 W/m2 unknown
01:39 59 °F 55.4 °F 30.3 in ENE 2.5 mph 3.7 mph 89% 0 in 0.00 W/m2 unknown
01:44 59 °F 55.4 °F 30.3 in ENE 2.5 mph 3.7 mph 89% 0 in 0.00 W/m2 unknown
01:49 59 °F 55.4 °F 30.3 in ENE 2.5 mph 3.7 mph 90% 0 in 0.00 W/m2 unknown
01:54 59 °F 55.4 °F 30.3 in ENE 2.5 mph 3.7 mph 90% 0 in 0.00 W/m2 unknown
01:59 59 °F 55.4 °F 30.3 in NE 1.9 mph 3.1 mph 89% 0 in 0.00 W/m2 unknown
02:04 59 °F 55.4 °F 30.3 in NE 1.9 mph 2.5 mph 89% 0 in 0.00 W/m2 unknown
02:09 59 °F 55.4 °F 30.3 in NE 0.6 mph 2.5 mph 90% 0 in 0.00 W/m2 unknown
02:14 59 °F 55.4 °F 30.3 in NE 1.2 mph 2.5 mph 90% 0 in 0.00 W/m2 unknown
02:19 59 °F 55.4 °F 30.3 in NE 1.2 mph 2.5 mph 90% 0 in 0.00 W/m2 unknown
02:24 59 °F 55.4 °F 30.3 in NE 1.9 mph 2.5 mph 90% 0 in 0.00 W/m2 unknown
02:29 59 °F 55.4 °F 30.3 in NE 1.2 mph 2.5 mph 91% 0 in 0.00 W/m2 unknown
02:34 57.2 °F 55.4 °F 30.3 in NE 1.2 mph 2.5 mph 91% 0 in 0.00 W/m2 unknown
02:39 57.2 °F 55.4 °F 30.3 in NE 1.2 mph 2.5 mph 91% 0 in 0.00 W/m2 unknown
02:44 59 °F 55.4 °F 30.3 in NE 1.2 mph 2.5 mph 91% 0 in 0.00 W/m2 unknown
02:49 57.2 °F 55.4 °F 30.3 in NE 1.2 mph 2.5 mph 91% 0 in 0.00 W/m2 unknown
02:54 57.2 °F 55.4 °F 30.3 in NE 1.9 mph 3.1 mph 91% 0 in 0.00 W/m2 unknown
02:59 57.2 °F 55.4 °F 30.3 in NE 1.9 mph 3.7 mph 91% 0 in 0.00 W/m2 unknown
03:04 57.2 °F 55.4 °F 30.3 in NNE 1.2 mph 3.1 mph 91% 0 in 0.00 W/m2 unknown
03:09 57.2 °F 55.4 °F 30.3 in NNE 1.9 mph 3.1 mph 91% 0 in 0.00 W/m2 unknown
03:14 57.2 °F 55.4 °F 30.3 in NNE 1.9 mph 3.7 mph 91% 0 in 0.00 W/m2 unknown
03:19 57.2 °F 55.4 °F 30.3 in NE 1.9 mph 3.7 mph 91% 0 in 0.00 W/m2 unknown
03:24 57.2 °F 55.4 °F 30.3 in NE 1.2 mph 3.1 mph 91% 0 in 0.00 W/m2 unknown
03:29 57.2 °F 55.4 °F 30.3 in NE 1.9 mph 3.7 mph 91% 0 in 0.00 W/m2 unknown
03:34 57.2 °F 55.4 °F 30.3 in NE 2.5 mph 3.7 mph 91% 0 in 0.00 W/m2 unknown
03:39 57.2 °F 55.4 °F 30.3 in NE 2.5 mph 3.7 mph 91% 0 in 0.00 W/m2 unknown
03:44 57.2 °F 55.4 °F 30.3 in NE 1.2 mph 3.1 mph 91% 0 in 0.00 W/m2 unknown
03:49 57.2 °F 55.4 °F 30.3 in ENE 1.9 mph 2.5 mph 92% 0 in 0.00 W/m2 unknown
03:54 57.2 °F 55.4 °F 30.3 in ENE 1.9 mph 3.7 mph 92% 0 in 0.00 W/m2 unknown
03:59 57.2 °F 55.4 °F 30.3 in ENE 1.9 mph 3.7 mph 92% 0 in 0.00 W/m2 unknown
04:04 57.2 °F 55.4 °F 30.3 in ENE 2.5 mph 3.7 mph 92% 0 in 0.00 W/m2 unknown
04:09 57.2 °F 55.4 °F 30.3 in ENE 2.5 mph 3.7 mph 92% 0 in 0.00 W/m2 unknown
04:14 57.2 °F 55.4 °F 30.3 in ENE 1.9 mph 3.7 mph 92% 0 in 0.00 W/m2 unknown
04:19 57.2 °F 55.4 °F 30.3 in ENE 1.9 mph 2.5 mph 92% 0 in 0.00 W/m2 unknown
04:24 57.2 °F 55.4 °F 30.3 in ENE 2.5 mph 3.7 mph 92% 0 in 0.00 W/m2 unknown
04:29 57.2 °F 55.4 °F 30.3 in ENE 2.5 mph 3.7 mph 92% 0 in 0.00 W/m2 unknown
04:34 57.2 °F 55.4 °F 30.3 in NE 3.1 mph 3.7 mph 92% 0 in 0.00 W/m2 unknown
04:39 57.2 °F 55.4 °F 30.3 in NNE 2.5 mph 3.7 mph 92% 0 in 0.00 W/m2 unknown
04:44 57.2 °F 55.4 °F 30.3 in NNE 1.2 mph 3.1 mph 92% 0 in 0.00 W/m2 unknown
04:49 57.2 °F 55.4 °F 30.3 in NNE 1.2 mph 2.5 mph 92% 0 in 0.00 W/m2 unknown
04:54 57.2 °F 55.4 °F 30.3 in NNE 1.2 mph 2.5 mph 92% 0 in 0.00 W/m2 unknown
04:59 57.2 °F 55.4 °F 30.3 in NNE 1.9 mph 2.5 mph 92% 0 in 0.00 W/m2 unknown
05:04 57.2 °F 55.4 °F 30.3 in NE 1.9 mph 2.5 mph 92% 0 in 0.00 W/m2 unknown
05:09 57.2 °F 55.4 °F 30.3 in NE 1.9 mph 3.1 mph 92% 0 in 0.00 W/m2 unknown
05:14 57.2 °F 55.4 °F 30.3 in ENE 2.5 mph 3.7 mph 92% 0 in 0.00 W/m2 unknown
05:19 57.2 °F 55.4 °F 30.3 in ENE 1.9 mph 3.1 mph 92% 0 in 0.00 W/m2 unknown
05:24 57.2 °F 55.4 °F 30.3 in East 1.9 mph 3.7 mph 93% 0 in 0.00 W/m2 unknown
05:29 57.2 °F 55.4 °F 30.3 in East 1.9 mph 3.7 mph 93% 0 in 0.00 W/m2 unknown
05:34 57.2 °F 55.4 °F 30.3 in ESE 2.5 mph 3.7 mph 93% 0 in 0.00 W/m2 unknown
05:39 57.2 °F 55.4 °F 30.3 in ESE 1.9 mph 3.7 mph 93% 0 in 0.00 W/m2 unknown
05:44 57.2 °F 55.4 °F 30.3 in ESE 1.9 mph 3.1 mph 93% 0 in 0.00 W/m2 unknown
05:49 57.2 °F 55.4 °F 30.3 in ESE 1.2 mph 1.9 mph 93% 0 in 0.00 W/m2 unknown
05:54 57.2 °F 53.6 °F 30.3 in Calm   1.2 mph 93% 0 in 0.00 W/m2 unknown
05:59 55.4 °F 53.6 °F 30.3 in Calm     93% 0 in 0.00 W/m2 unknown
06:04 55.4 °F 53.6 °F 30.3 in Calm     93% 0 in 0.00 W/m2 unknown
06:09 55.4 °F 53.6 °F 30.3 in Calm     93% 0 in 0.00 W/m2 unknown
06:14 55.4 °F 53.6 °F 30.3 in Calm     93% 0 in 0.00 W/m2 unknown
06:19 55.4 °F 53.6 °F 30.3 in Calm     94% 0 in 0.00 W/m2 unknown
06:24 55.4 °F 53.6 °F 30.3 in Calm     94% 0 in 0.00 W/m2 unknown
06:29 55.4 °F 53.6 °F 30.3 in Calm     94% 0 in 0.00 W/m2 unknown
06:34 55.4 °F 53.6 °F 30.3 in Calm     94% 0 in 0.00 W/m2 unknown
06:39 55.4 °F 53.6 °F 30.3 in Calm     93% 0 in 0.00 W/m2 unknown
06:44 55.4 °F 53.6 °F 30.3 in Calm     93% 0 in 0.00 W/m2 unknown
06:49 55.4 °F 53.6 °F 30.3 in Calm     93% 0 in 0.00 W/m2 unknown
06:54 55.4 °F 53.6 °F 30.3 in Calm     93% 0 in 0.00 W/m2 unknown
06:59 55.4 °F 53.6 °F 30.3 in Calm     94% 0 in 0.00 W/m2 unknown
07:04 55.4 °F 53.6 °F 30.3 in Calm     94% 0 in 0.00 W/m2 unknown
07:09 55.4 °F 53.6 °F 30.3 in Calm     94% 0 in 0.00 W/m2 unknown
07:14 55.4 °F 53.6 °F 30.3 in Calm     94% 0 in 0.00 W/m2 unknown
07:19 55.4 °F 53.6 °F 30.3 in Calm     94% 0 in 0.00 W/m2 unknown
07:24 55.4 °F 53.6 °F 30.3 in Calm     94% 0 in 0.00 W/m2 unknown
07:29 55.4 °F 53.6 °F 30.3 in Calm     93% 0 in 5.00 W/m2 unknown
07:34 55.4 °F 53.6 °F 30.3 in NE 2.5 mph 3.7 mph 94% 0 in 9.00 W/m2 unknown
07:39 55.4 °F 53.6 °F 30.3 in NE 2.5 mph 3.7 mph 94% 0 in 14.00 W/m2 unknown
07:44 55.4 °F 53.6 °F 30.3 in NE 1.2 mph 3.1 mph 94% 0 in 19.00 W/m2 unknown
07:49 55.4 °F 53.6 °F 30.3 in Calm   1.2 mph 94% 0 in 25.00 W/m2 unknown
07:54 55.4 °F 53.6 °F 30.3 in NE 1.2 mph 1.9 mph 94% 0 in 30.00 W/m2 unknown
07:59 55.4 °F 53.6 °F 30.3 in NE 1.2 mph 2.5 mph 94% 0 in 35.00 W/m2 unknown
08:04 57.2 °F 55.4 °F 30.3 in ENE 1.9 mph 2.5 mph 94% 0 in 42.00 W/m2 unknown
08:09 57.2 °F 55.4 °F 30.3 in ENE 1.2 mph 3.1 mph 94% 0 in 51.00 W/m2 unknown
08:14 57.2 °F 55.4 °F 30.3 in East 1.9 mph 3.7 mph 94% 0 in 58.00 W/m2 unknown
08:19 57.2 °F 55.4 °F 30.3 in ENE 2.5 mph 3.7 mph 94% 0 in 67.00 W/m2 unknown
08:24 57.2 °F 55.4 °F 30.3 in ENE 1.9 mph 3.1 mph 94% 0 in 77.00 W/m2 unknown
08:29 57.2 °F 57.2 °F 30.3 in East 1.2 mph 2.5 mph 94% 0 in 90.00 W/m2 unknown
08:34 59 °F 57.2 °F 30.3 in ENE 2.5 mph 3.7 mph 94% 0 in 98.00 W/m2 unknown
08:39 59 °F 57.2 °F 30.3 in NE 2.5 mph 3.7 mph 94% 0 in 107.00 W/m2 unknown
08:44 59 °F 57.2 °F 30.3 in NE 1.9 mph 3.7 mph 93% 0 in 113.00 W/m2 unknown
08:49 59 °F 57.2 °F 30.3 in NE 1.9 mph 3.7 mph 93% 0 in 121.00 W/m2 unknown
08:54 60.8 °F 57.2 °F 30.3 in ENE 2.5 mph 3.7 mph 92% 0 in 135.00 W/m2 unknown
08:59 60.8 °F 57.2 °F 30.3 in East 2.5 mph 3.7 mph 92% 0 in 151.00 W/m2 unknown
09:04 60.8 °F 57.2 °F 30.3 in ENE 2.5 mph 3.7 mph 92% 0 in 156.00 W/m2 unknown
09:09 60.8 °F 59 °F 30.3 in ENE 2.5 mph 3.7 mph 91% 0 in 167.00 W/m2 unknown
09:14 60.8 °F 59 °F 30.3 in ENE 2.5 mph 3.7 mph 91% 0 in 185.00 W/m2 unknown
09:19 60.8 °F 59 °F 30.3 in ENE 3.7 mph 5 mph 91% 0 in 199.00 W/m2 unknown
09:24 62.6 °F 59 °F 30.3 in East 3.1 mph 3.7 mph 90% 0 in 206.00 W/m2 unknown
09:29 62.6 °F 59 °F 30.3 in ESE 2.5 mph 3.7 mph 90% 0 in 229.00 W/m2 unknown
09:34 62.6 °F 59 °F 30.3 in East 3.1 mph 5 mph 90% 0 in 244.00 W/m2 unknown
09:39 62.6 °F 60.8 °F 30.3 in ENE 3.1 mph 5 mph 90% 0 in 258.00 W/m2 unknown
09:44 62.6 °F 60.8 °F 30.3 in ENE 3.1 mph 5 mph 90% 0 in 271.00 W/m2 unknown
09:49 62.6 °F 60.8 °F 30.3 in East 3.1 mph 5 mph 89% 0 in 283.00 W/m2 unknown
09:54 64.4 °F 60.8 °F 30.3 in East 3.1 mph 3.7 mph 89% 0 in 294.00 W/m2 unknown
09:59 64.4 °F 60.8 °F 30.3 in ESE 2.5 mph 3.7 mph 89% 0 in 304.00 W/m2 unknown
10:04 64.4 °F 60.8 °F 30.3 in East 2.5 mph 3.7 mph 89% 0 in 323.00 W/m2 unknown
10:09 64.4 °F 62.6 °F 30.3 in ENE 1.9 mph 3.7 mph 89% 0 in 339.00 W/m2 unknown
10:14 66.2 °F 62.6 °F 30.3 in ENE 1.9 mph 3.7 mph 88% 0 in 350.00 W/m2 unknown
10:19 66.2 °F 62.6 °F 30.3 in ESE 2.5 mph 3.7 mph 88% 0 in 355.00 W/m2 unknown
10:24 66.2 °F 62.6 °F 30.3 in East 2.5 mph 3.7 mph 88% 0 in 371.00 W/m2 unknown
10:29 66.2 °F 62.6 °F 30.3 in East 1.9 mph 3.7 mph 87% 0 in 383.00 W/m2 unknown
10:34 66.2 °F 62.6 °F 30.3 in East 3.1 mph 6.2 mph 87% 0 in 383.00 W/m2 unknown
10:39 66.2 °F 62.6 °F 30.3 in ESE 3.1 mph 6.2 mph 86% 0 in 401.00 W/m2 unknown
10:44 68 °F 62.6 °F 30.3 in East 3.1 mph 5 mph 87% 0 in 417.00 W/m2 unknown
10:49 68 °F 62.6 °F 30.3 in SSE 3.1 mph 5 mph 86% 0 in 420.00 W/m2 unknown
10:54 68 °F 62.6 °F 30.3 in ESE 4.3 mph 6.8 mph 85% 0 in 438.00 W/m2 unknown
10:59 68 °F 62.6 °F 30.3 in East 3.7 mph 6.8 mph 85% 0 in 457.00 W/m2 unknown
11:04 68 °F 62.6 °F 30.3 in South 3.1 mph 6.2 mph 85% 0 in 471.00 W/m2 unknown
11:09 68 °F 62.6 °F 30.3 in ESE 3.1 mph 5 mph 85% 0 in 496.00 W/m2 unknown
11:14 68 °F 64.4 °F 30.3 in ESE 3.1 mph 5 mph 84% 0 in 506.00 W/m2 unknown
11:19 68 °F 62.6 °F 30.3 in East 5 mph 8.1 mph 84% 0 in 504.00 W/m2 unknown
11:24 68 °F 62.6 °F 30.3 in ENE 5.6 mph 8.1 mph 84% 0 in 504.00 W/m2 unknown
11:29 68 °F 64.4 °F 30.3 in North 2.5 mph 8.1 mph 85% 0 in 325.00 W/m2 unknown
11:34 68 °F 64.4 °F 30.3 in ENE 1.2 mph 3.1 mph 84% 0 in 325.00 W/m2 unknown
11:39 68 °F 62.6 °F 30.3 in SE 2.5 mph 5 mph 83% 0 in 348.00 W/m2 unknown
11:44 69.8 °F 64.4 °F 30.3 in East 5 mph 6.8 mph 83% 0 in 557.00 W/m2 unknown
11:49 69.8 °F 64.4 °F 30.3 in ENE 5 mph 6.8 mph 83% 0 in 570.00 W/m2 unknown
11:54 69.8 °F 64.4 °F 30.3 in East 5 mph 6.8 mph 81% 0 in 555.00 W/m2 unknown
11:59 69.8 °F 64.4 °F 30.3 in SE 4.3 mph 6.8 mph 81% 0 in 288.00 W/m2 unknown
12:04 69.8 °F 64.4 °F 30.3 in SW 2.5 mph 5 mph 80% 0 in 603.00 W/m2 unknown
12:09 69.8 °F 64.4 °F 30.3 in SSW 5 mph 6.8 mph 80% 0 in 610.00 W/m2 unknown
12:14 69.8 °F 64.4 °F 30.3 in South 5 mph 6.8 mph 79% 0 in 603.00 W/m2 unknown
12:19 69.8 °F 64.4 °F 30.3 in ESE 5 mph 6.8 mph 79% 0 in 594.00 W/m2 unknown
12:24 71.6 °F 64.4 °F 30.3 in SSE 3.7 mph 6.8 mph 79% 0 in 599.00 W/m2 unknown
12:29 71.6 °F 64.4 °F 30.3 in ESE 4.3 mph 5 mph 78% 0 in 596.00 W/m2 unknown
12:34 71.6 °F 64.4 °F 30.3 in SE 4.3 mph 6.8 mph 78% 0 in 585.00 W/m2 unknown
12:39 71.6 °F 64.4 °F 30.3 in ESE 5 mph 6.8 mph 78% 0 in 592.00 W/m2 unknown
12:44 71.6 °F 64.4 °F 30.3 in SE 4.3 mph 6.8 mph 76% 0 in 591.00 W/m2 unknown
12:49 71.6 °F 64.4 °F 30.3 in ESE 3.7 mph 6.2 mph 77% 0 in 582.00 W/m2 unknown
12:54 69.8 °F 62.6 °F 30.3 in SE 4.3 mph 5 mph 78% 0 in 578.00 W/m2 unknown
12:59 71.6 °F 64.4 °F 30.3 in ESE 5 mph 6.2 mph 78% 0 in 605.00 W/m2 unknown
13:04 71.6 °F 64.4 °F 30.3 in ESE 5 mph 6.2 mph 78% 0 in 605.00 W/m2 unknown
13:09 71.6 °F 64.4 °F 30.3 in SSE 3.1 mph 6.2 mph 78% 0 in 577.00 W/m2 unknown
13:14 71.6 °F 64.4 °F 30.3 in South 3.1 mph 5 mph 76% 0 in 571.00 W/m2 unknown
13:19 71.6 °F 64.4 °F 30.3 in ESE 6.2 mph 8.1 mph 78% 0 in 541.00 W/m2 unknown
13:24 71.6 °F 64.4 °F 30.3 in ESE 6.2 mph 8.1 mph 78% 0 in 195.00 W/m2 unknown
13:29 69.8 °F 64.4 °F 30.3 in ESE 3.1 mph 5 mph 79% 0 in 158.00 W/m2 unknown
13:34 69.8 °F 64.4 °F 30.3 in ESE 3.7 mph 5 mph 79% 0 in 142.00 W/m2 unknown
13:39 69.8 °F 64.4 °F 30.3 in East 2.5 mph 3.7 mph 80% 0 in 174.00 W/m2 unknown
13:44 69.8 °F 64.4 °F 30.3 in East 2.5 mph 3.7 mph 80% 0 in 174.00 W/m2 unknown
13:49 69.8 °F 64.4 °F 30.3 in ESE 3.1 mph 3.7 mph 79% 0 in 144.00 W/m2 unknown
13:54 69.8 °F 62.6 °F 30.3 in East 2.5 mph 3.7 mph 79% 0 in 153.00 W/m2 unknown
13:59 69.8 °F 62.6 °F 30.3 in ESE 2.5 mph 3.7 mph 79% 0 in 149.00 W/m2 unknown
14:04 69.8 °F 62.6 °F 30.3 in East 2.5 mph 3.7 mph 78% 0 in 151.00 W/m2 unknown
14:09 69.8 °F 62.6 °F 30.3 in ESE 2.5 mph 3.7 mph 78% 0 in 155.00 W/m2 unknown
14:14 69.8 °F 62.6 °F 30.3 in ENE 2.5 mph 3.7 mph 78% 0 in 167.00 W/m2 unknown
14:19 69.8 °F 62.6 °F 30.3 in ENE 3.1 mph 3.7 mph 77% 0 in 169.00 W/m2 unknown
14:24 71.6 °F 62.6 °F 30.3 in ENE 3.1 mph 3.7 mph 77% 0 in 174.00 W/m2 unknown
14:29 71.6 °F 62.6 °F 30.3 in ENE 3.1 mph 3.7 mph 77% 0 in 213.00 W/m2 unknown
14:34 71.6 °F 64.4 °F 30.3 in ENE 2.5 mph 3.7 mph 77% 0 in 271.00 W/m2 unknown
14:39 71.6 °F 64.4 °F 30.3 in ENE 2.5 mph 3.7 mph 76% 0 in 271.00 W/m2 unknown
14:44 71.6 °F 62.6 °F 30.3 in East 1.9 mph 3.7 mph 73% 0 in 214.00 W/m2 unknown
14:49 71.6 °F 62.6 °F 30.3 in ESE 2.5 mph 3.7 mph 72% 0 in 243.00 W/m2 unknown
14:54 71.6 °F 62.6 °F 30.3 in East 1.2 mph 3.1 mph 72% 0 in 206.00 W/m2 unknown
14:59 71.6 °F 62.6 °F 30.3 in East 1.9 mph 3.7 mph 72% 0 in 232.00 W/m2 unknown
15:04 73.4 °F 62.6 °F 30.3 in ESE 3.1 mph 3.7 mph 71% 0 in 503.00 W/m2 unknown
15:09 73.4 °F 62.6 °F 30.3 in ESE 3.1 mph 3.7 mph 70% 0 in 494.00 W/m2 unknown
15:14 73.4 °F 60.8 °F 30.3 in East 3.1 mph 3.7 mph 68% 0 in 476.00 W/m2 unknown
15:19 73.4 °F 62.6 °F 30.3 in East 5 mph 6.2 mph 69% 0 in 490.00 W/m2 unknown
15:24 73.4 °F 62.6 °F 30.3 in ESE 5 mph 6.2 mph 68% 0 in 480.00 W/m2 unknown
15:29 73.4 °F 62.6 °F 30.3 in ESE 3.1 mph 5 mph 69% 0 in 469.00 W/m2 unknown
15:34 73.4 °F 62.6 °F 30.3 in ESE 1.9 mph 5 mph 68% 0 in 457.00 W/m2 unknown
15:39 73.4 °F 62.6 °F 30.3 in NE 3.1 mph 5 mph 67% 0 in 452.00 W/m2 unknown
15:44 73.4 °F 62.6 °F 30.3 in ENE 2.5 mph 5 mph 66% 0 in 429.00 W/m2 unknown
15:49 73.4 °F 62.6 °F 30.3 in ESE 3.1 mph 6.8 mph 68% 0 in 420.00 W/m2 unknown
15:54 73.4 °F 62.6 °F 30.3 in ESE 4.3 mph 6.8 mph 67% 0 in 406.00 W/m2 unknown
15:59 73.4 °F 62.6 °F 30.3 in ESE 2.5 mph 6.8 mph 66% 0 in 406.00 W/m2 unknown
16:04 75.2 °F 62.6 °F 30.3 in SE 2.5 mph 3.7 mph 66% 0 in 381.00 W/m2 unknown
16:09 75.2 °F 64.4 °F 30.3 in ESE 3.1 mph 3.7 mph 69% 0 in 380.00 W/m2 unknown
16:14 75.2 °F 64.4 °F 30.3 in NNE 5.6 mph 6.8 mph 69% 0 in 380.00 W/m2 unknown
16:19 75.2 °F 64.4 °F 30.3 in NE 6.8 mph 9.3 mph 69% 0 in 380.00 W/m2 unknown
16:24 75.2 °F 64.4 °F 30.3 in NE 6.2 mph 9.3 mph 69% 0 in 371.00 W/m2 unknown
16:29 75.2 °F 64.4 °F 30.3 in NE 6.2 mph 8.1 mph 70% 0 in 332.00 W/m2 unknown
16:34 73.4 °F 64.4 °F 30.3 in NE 6.2 mph 8.1 mph 70% 0 in 308.00 W/m2 unknown
16:39 73.4 °F 62.6 °F 30.3 in NE 5.6 mph 8.1 mph 70% 0 in 283.00 W/m2 unknown
16:44 73.4 °F 62.6 °F 30.3 in NE 5.6 mph 8.1 mph 70% 0 in 260.00 W/m2 unknown
16:49 73.4 °F 64.4 °F 30.3 in ENE 5 mph 8.1 mph 71% 0 in 234.00 W/m2 unknown
16:54 73.4 °F 62.6 °F 30.3 in ENE 5 mph 6.8 mph 70% 0 in 225.00 W/m2 unknown
16:59 73.4 °F 62.6 °F 30.3 in ENE 5.6 mph 6.8 mph 70% 0 in 216.00 W/m2 unknown
17:04 73.4 °F 62.6 °F 30.3 in ENE 3.1 mph 6.8 mph 71% 0 in 199.00 W/m2 unknown
17:09 73.4 °F 62.6 °F 30.3 in NE 4.3 mph 6.2 mph 70% 0 in 197.00 W/m2 unknown
17:14 73.4 °F 62.6 °F 30.3 in NE 4.3 mph 6.2 mph 71% 0 in 178.00 W/m2 unknown
17:19 73.4 °F 62.6 °F 30.3 in ENE 3.1 mph 6.2 mph 71% 0 in 95.00 W/m2 unknown
17:24 73.4 °F 62.6 °F 30.3 in ENE 3.1 mph 5 mph 72% 0 in 141.00 W/m2 unknown
17:29 73.4 °F 62.6 °F 30.3 in ENE 3.1 mph 3.7 mph 72% 0 in 141.00 W/m2 unknown
17:34 73.4 °F 62.6 °F 30.3 in NE 3.1 mph 3.7 mph 72% 0 in 128.00 W/m2 unknown
17:39 73.4 °F 62.6 °F 30.3 in NE 3.1 mph 3.7 mph 71% 0 in 116.00 W/m2 unknown
17:44 73.4 °F 62.6 °F 30.3 in ENE 2.5 mph 3.7 mph 72% 0 in 100.00 W/m2 unknown
17:49 71.6 °F 62.6 °F 30.3 in ENE 2.5 mph 3.7 mph 74% 0 in 90.00 W/m2 unknown
17:54 71.6 °F 64.4 °F 30.3 in ESE 2.5 mph 3.7 mph 76% 0 in 77.00 W/m2 unknown
17:59 71.6 °F 64.4 °F 30.3 in SE 1.9 mph 3.7 mph 76% 0 in 72.00 W/m2 unknown
18:04 71.6 °F 64.4 °F 30.3 in SE 1.2 mph 3.1 mph 77% 0 in 62.00 W/m2 unknown
18:09 71.6 °F 62.6 °F 30.3 in SE 0.6 mph 1.2 mph 77% 0 in 47.00 W/m2 unknown
18:14 71.6 °F 62.6 °F 30.3 in Calm   1.2 mph 77% 0 in 33.00 W/m2 unknown
18:19 69.8 °F 62.6 °F 30.3 in East 0.6 mph 2.5 mph 79% 0 in 26.00 W/m2 unknown
18:24 69.8 °F 62.6 °F 30.3 in East 1.9 mph 2.5 mph 80% 0 in 21.00 W/m2 unknown
18:29 69.8 °F 62.6 °F 30.3 in NE 1.9 mph 2.5 mph 80% 0 in 19.00 W/m2 unknown
18:34 69.8 °F 62.6 °F 30.3 in NE 1.9 mph 2.5 mph 80% 0 in 16.00 W/m2 unknown
18:39 69.8 °F 62.6 °F 30.3 in NE 1.2 mph 2.5 mph 80% 0 in 12.00 W/m2 unknown
18:44 69.8 °F 62.6 °F 30.3 in ENE 1.9 mph 2.5 mph 80% 0 in 9.00 W/m2 unknown
18:49 68 °F 62.6 °F 30.3 in ENE 1.9 mph 2.5 mph 82% 0 in 5.00 W/m2 unknown
18:54 68 °F 62.6 °F 30.3 in ENE 1.2 mph 2.5 mph 82% 0 in 5.00 W/m2 unknown
18:59 68 °F 62.6 °F 30.3 in ENE 1.2 mph 2.5 mph 83% 0 in 0.00 W/m2 unknown
19:04 68 °F 62.6 °F 30.3 in ENE 1.2 mph 2.5 mph 83% 0 in 0.00 W/m2 unknown
19:09 68 °F 62.6 °F 30.3 in ENE 0.6 mph 2.5 mph 83% 0 in 0.00 W/m2 unknown
19:14 68 °F 62.6 °F 30.3 in ENE 1.2 mph 2.5 mph 84% 0 in 0.00 W/m2 unknown
19:19 68 °F 62.6 °F 30.3 in ENE 1.2 mph 2.5 mph 84% 0 in 0.00 W/m2 unknown
19:24 68 °F 62.6 °F 30.3 in ENE 1.2 mph 1.9 mph 84% 0 in 0.00 W/m2 unknown
19:29 68 °F 62.6 °F 30.3 in ENE 0.6 mph 1.2 mph 83% 0 in 0.00 W/m2 unknown
19:34 68 °F 62.6 °F 30.3 in ENE 0.6 mph 1.2 mph 84% 0 in 0.00 W/m2 unknown
19:39 68 °F 62.6 °F 30.3 in ENE 0.6 mph 1.2 mph 84% 0 in 0.00 W/m2 unknown
19:44 68 °F 62.6 °F 30.3 in ENE 1.2 mph 2.5 mph 84% 0 in 0.00 W/m2 unknown
19:49 66.2 °F 62.6 °F 30.3 in ENE 1.2 mph 2.5 mph 84% 0 in 0.00 W/m2 unknown
19:54 66.2 °F 62.6 °F 30.3 in ENE 1.2 mph 1.9 mph 84% 0 in 0.00 W/m2 unknown
19:59 68 °F 62.6 °F 30.3 in Calm   1.2 mph 84% 0 in 0.00 W/m2 unknown
20:04 68 °F 62.6 °F 30.3 in Calm   1.2 mph 84% 0 in 0.00 W/m2 unknown
20:09 68 °F 62.6 °F 30.3 in ENE 1.2 mph 2.5 mph 84% 0 in 0.00 W/m2 unknown
20:14 68 °F 62.6 °F 30.3 in ENE 1.2 mph 2.5 mph 84% 0 in 0.00 W/m2 unknown
20:19 68 °F 62.6 °F 30.3 in ENE 1.2 mph 2.5 mph 84% 0 in 0.00 W/m2 unknown
20:24 68 °F 62.6 °F 30.3 in ENE 1.2 mph 2.5 mph 83% 0 in 0.00 W/m2 unknown
20:29 68 °F 62.6 °F 30.3 in ENE 1.2 mph 2.5 mph 84% 0 in 0.00 W/m2 unknown
20:34 68 °F 62.6 °F 30.3 in ENE 1.9 mph 2.5 mph 84% 0 in 0.00 W/m2 unknown
20:39 68 °F 62.6 °F 30.3 in ENE 1.9 mph 3.1 mph 83% 0 in 0.00 W/m2 unknown
20:44 68 °F 62.6 °F 30.3 in East 1.9 mph 3.7 mph 83% 0 in 0.00 W/m2 unknown
20:49 68 °F 62.6 °F 30.3 in East 1.2 mph 3.1 mph 83% 0 in 0.00 W/m2 unknown
20:54 68 °F 62.6 °F 30.3 in East 1.9 mph 2.5 mph 83% 0 in 0.00 W/m2 unknown
20:59 68 °F 62.6 °F 30.3 in East 1.9 mph 2.5 mph 83% 0 in 0.00 W/m2 unknown
21:04 66.2 °F 62.6 °F 30.3 in East 1.2 mph 2.5 mph 83% 0 in 0.00 W/m2 unknown
21:09 66.2 °F 62.6 °F 30.3 in East 1.2 mph 1.9 mph 84% 0 in 0.00 W/m2 unknown
21:14 66.2 °F 62.6 °F 30.3 in Calm   1.2 mph 84% 0 in 0.00 W/m2 unknown
21:19 66.2 °F 60.8 °F 30.3 in Calm   1.2 mph 84% 0 in 0.00 W/m2 unknown
21:24 66.2 °F 60.8 °F 30.3 in Calm     84% 0 in 0.00 W/m2 unknown
21:29 66.2 °F 60.8 °F 30.3 in Calm     85% 0 in 0.00 W/m2 unknown
21:34 66.2 °F 60.8 °F 30.3 in Calm   1.2 mph 85% 0 in 0.00 W/m2 unknown
21:39 66.2 °F 60.8 °F 30.3 in Calm   1.2 mph 85% 0 in 0.00 W/m2 unknown
21:44 66.2 °F 60.8 °F 30.3 in Calm     86% 0 in 0.00 W/m2 unknown
21:49 66.2 °F 60.8 °F 30.3 in Calm     87% 0 in 0.00 W/m2 unknown
21:54 64.4 °F 60.8 °F 30.3 in East 1.2 mph 1.9 mph 87% 0 in 0.00 W/m2 unknown
21:59 64.4 °F 60.8 °F 30.3 in NE 1.2 mph 2.5 mph 87% 0 in 0.00 W/m2 unknown
22:04 64.4 °F 60.8 °F 30.3 in NE 1.2 mph 2.5 mph 88% 0 in 0.00 W/m2 unknown
22:09 64.4 °F 60.8 °F 30.3 in Calm     88% 0 in 0.00 W/m2 unknown
22:14 64.4 °F 60.8 °F 30.3 in Calm     88% 0 in 0.00 W/m2 unknown
22:19 64.4 °F 60.8 °F 30.3 in Calm     89% 0 in 0.00 W/m2 unknown
22:24 62.6 °F 60.8 °F 30.3 in Calm     89% 0 in 0.00 W/m2 unknown
22:29 62.6 °F 59 °F 30.3 in Calm     89% 0 in 0.00 W/m2 unknown
22:34 62.6 °F 59 °F 30.3 in Calm     89% 0 in 0.00 W/m2 unknown
22:39 62.6 °F 59 °F 30.3 in Calm     89% 0 in 0.00 W/m2 unknown
22:44 62.6 °F 59 °F 30.3 in Calm     90% 0 in 0.00 W/m2 unknown
22:49 62.6 °F 59 °F 30.3 in Calm     90% 0 in 0.00 W/m2 unknown
22:54 62.6 °F 59 °F 30.3 in Calm     90% 0 in 0.00 W/m2 unknown
22:59 62.6 °F 59 °F 30.3 in Calm     90% 0 in 0.00 W/m2 unknown
23:04 62.6 °F 59 °F 30.3 in Calm     90% 0 in 0.00 W/m2 unknown
23:09 62.6 °F 59 °F 30.3 in Calm     91% 0 in 0.00 W/m2 unknown
23:14 62.6 °F 59 °F 30.3 in Calm     90% 0 in 0.00 W/m2 unknown
23:19 60.8 °F 59 °F 30.3 in Calm     90% 0 in 0.00 W/m2 unknown
23:24 60.8 °F 59 °F 30.3 in Calm     91% 0 in 0.00 W/m2 unknown
23:29 60.8 °F 59 °F 30.3 in Calm     91% 0 in 0.00 W/m2 unknown
23:34 60.8 °F 59 °F 30.3 in Calm     91% 0 in 0.00 W/m2 unknown
23:39 60.8 °F 59 °F 30.3 in Calm     91% 0 in 0.00 W/m2 unknown
23:44 60.8 °F 59 °F 30.3 in Calm     91% 0 in 0.00 W/m2 unknown
23:49 60.8 °F 59 °F 30.3 in Calm     91% 0 in 0.00 W/m2 unknown
23:54 60.8 °F 59 °F 30.3 in NE 1.2 mph 1.9 mph 91% 0 in 0.00 W/m2 unknown
23:59 60.8 °F 59 °F 30.3 in NE 1.9 mph 2.5 mph 91% 0 in 0.00 W/m2 unknown
Stazione Meteorologica MeteoMincio Rivalta s/M (MN)
Con i complimenti di Weather Underground - 4 mb



METEO PILLOLE
La più disastrosa inondazione causata da cicloni
Bangladesh
Nel novembre 1970 un ciclone nel Golfo del Bangladesh uccise circa 300.000 persone.
Share

Non seguire questo link o sarai bannato dal sito!